Regional Weather Roundup
Issued by NWS Kansas City/Pleasant Hill, MO

Home | Current Version | Previous Version | Graphics & Text | Print | Product List | Glossary Off
Versions: 1 2 3 4 5 6 7 8 9 10 11 12 13 14 15 16 17 18 19 20 21 22 23 24 25 26 27 28 29 30 31 32 33 34 35 36 37 38 39 40 41 42 43 44 45 46 47 48 49 50

000
ASUS43 KEAX 272010
RWREAX

WEATHER ROUNDUP FOR EASTERN KANSAS AND NORTHWEST MISSOURI
NATIONAL WEATHER SERVICE KANSAS CITY/PLEASANT HILL MO
300 PM CDT WED JUL 27 2016

KSZ040-057-103>105-MOZ028-029-037-043-272100-
...KANSAS CITY METROPOLITAN AREA...

CITY           SKY/WX    TMP DP  RH WIND       PRES   REMARKS
K.C. INTL      CLOUDY    89  68  49 CALM      29.96F HX  93
K.C. DOWNTOWN  SUNNY     91  65  41 CALM      29.94F HX  93
LEES SUMMIT    SUNNY     90  68  48 VRB5      29.97F HX  94
OLATHE - IXD   SUNNY     91  65  41 VRB6      29.97F HX  93
OLATHE - OJC   MOSUNNY   92  64  39 VRB3      29.97F HX  93
LAWRENCE       MOSUNNY   92  63  38 VRB3      29.95F HX  93

$$

MOZ001>008-011>017-020>025-030>033-038>040-044>046-053-054-272100-
...NORTHERN AND CENTRAL MISSOURI...

CITY           SKY/WX    TMP DP  RH WIND       PRES   REMARKS
ST. JOSEPH     MOSUNNY   87  69  54 CALM      29.96F HX  91
MOSBY          PTCLDY    88  64  45 CALM      29.95F
WHITEMAN AFB   PTSUNNY   88  73  61 NW3       29.95F HX  95
CLINTON        MOSUNNY   90  75  62 NW6       29.96F HX 100
SEDALIA        CLOUDY    89  74  60 CALM      29.97F HX  98
WARSAW         NOT AVBL
CHILLICOTHE      N/A     89  68  49 VRB5      29.95F HX  93
KIRKSVILLE     MOSUNNY   88  69  53 SE7       29.96F HX  92

$$

MOZ041-047>049-056>058-063>065-088>090-097-272100-
...EASTERN AND SOUTHERN MISSOURI...

CITY           SKY/WX    TMP DP  RH WIND       PRES   REMARKS
ST. LOUIS INTL MOSUNNY   90  71  53 CALM      29.94F HX  96
SPIRIT OF STL  PTSUNNY   89  73  59 W7        29.92F HX  97
COLUMBIA       CLOUDY    89  74  60 CALM      29.95F HX  98
JEFFERSON CITY MOSUNNY   88  74  63 E5        29.93F HX  96
ROLLA          MOSUNNY   86  74  67 S5        29.96F HX  94
OSAGE BEACH    SUNNY     87  74  64 S6        29.96F HX  95
SPRINGFIELD    CLOUDY    83  73  72 W3        29.97F
BRANSON        PTSUNNY   86  72  62 N8        29.97F HX  92
JOPLIN         PTSUNNY   90  76  63 NW7       29.96F HX 101
WEST PLAINS    SUNNY     88  71  57 CALM      29.97F HX  94

$$

IAZ060-094-KSZ022-034>040-054-083-096-NEZ052-066-093-272100-
...KANSAS...SOUTHEAST NEBRASKA AND IOWA...

CITY           SKY/WX    TMP DP  RH WIND       PRES   REMARKS
TOPEKA         CLOUDY    90  68  48 NE5       29.96F HX  94
MANHATTAN      PTSUNNY   88  72  58 E5        29.98F HX  94
EMPORIA        MOSUNNY   90  69  50 CALM      29.97F HX  94
CHANUTE        MOSUNNY   89  73  59 N5        29.96F HX  97
WICHITA        MOSUNNY   93  69  45 CALM      29.97F HX  98
OMAHA          MOSUNNY   83  69  62 NE9       29.97S
LINCOLN        MOSUNNY   87  67  51 NW9       29.99F HX  90
FALLS CITY     MOSUNNY   88  72  58 CALM      29.96F HX  94
LAMONI         MOSUNNY   85  69  58 SW8       29.98F
DES MOINES     CLOUDY    83  69  62 SW6       29.96F

$$




USA.gov is the U.S. government's official web portal to all federal, state and local government web resources and services.